Погода в Каменке

Россия / Иркутская область     54°55′53″N   98°49′32″E
темп.,
°C
ветер,
м/с
пор.,
м/с
влажн.,
%
обл.,
%
осадки,
мм/ч
давл.,
гПа
погр.,
м
11 августа, чт
чт1123:00+14зюз1190100 0.1 101019
02:00+13юз229592 0.8 101048
05:00+13з219788 1.8 100926
08:00+14зсз1295100 2.9 1010105
11:00+18зсз47607 0.3 10101390
14:00+21сз574881 0.4 10101982
17:00+18ссз366298 0.0 10111072
20:00+17зсз24693 0.0 1011173
12 августа, пт
пт1223:00+13юз22805 0.0 101226
02:00+12зюз22805 0.0 101221
05:00+11юз22825 0.0 101120
08:00+15ююз11685 0.0 101090
11:00+21вюв214623 0.0 10091196
14:00+23в333967 0.0 10082197
17:00+22св1253100 0.0 1007359
20:00+17ссз2573100 0.0 1008195
13 августа, сб
сб1323:00+16зсз117694 0.1 100914
02:00+12зсз229544 0.1 100925
05:00+11зсз119772 0.0 100913
08:00+14сз118663 0.0 1009177
11:00+18всв236684 0.0 1009730
14:00+21св224393 0.0 10072031
17:00+19св125795 0.0 1007187
20:00+17вюв11675 0.0 100815
14 августа, вс
вс1423:00+12ююз217848 0.0 100814
02:00+10ююз11840 0.0 100811
05:00+10ююз119199 0.0 100714
08:00+14ююв1276100 0.0 1006110
11:00+19вюв1355100 0.0 1005710
14:00+17юз0184100 1.5 1005203
17:00+20сз1368100 0.3 1004676
20:00+15сз119349 2.2 100411
15 августа, пн
пн1523:00+12юз2295100 1.4 100419
02:00+12юз2292100 1.4 100436
05:00+12юз2291100 0.0 100351
08:00+12ююз2493100 0.3 100490
11:00+12з2892100 2.4 1005450
14:00+18сз4841100 2.4 10042178
17:00+16зсз145591 0.0 10051091
20:00+13зсз1173100 0.2 100512